Terug naar catalogus

STARLINK-4089

ActiefCommunicatieVLEO
NORAD 52831·PAYLOAD·🇺🇸 United States

Gelanceerd Jun 17, 2022 vanaf Cape Canaveral Space Force Station

Loading…

Volgende Passages (komende 24 uur)

TLE

VersSource: CelesTrak SupGP

Epoch: Sep 14, 2026, 21:04 UTC

1 52831C 22062B   26257.87826389  .00052647  00000+0  16930-2 0  2575
2 52831  53.1560 255.0409 0000906  62.6308 248.8738 15.31676479    16

Volg STARLINK-4089 in realtime met AllMySat

Download on the App Store